Tracking 19644 objects as of 24-Apr-2019
HD Live streaming from Space Station
objects crossing your sky now

COSMOS 1823 DEB

Track COSMOS 1823 DEB now!
10-day predictions


NORAD ID: 26601
Int'l Code: 1987-020DT
Perigee: 1,486.3 km
Apogee: 1,530.6 km
Inclination: 73.6 °
Period: 116.0 minutes
Semi major axis: 7879 km
RCS: 0.0108 m2 (small)
Launch date: February 20, 1987
Source: Commonwealth of Independent States (former USSR) (CIS)
Launch site: PLESETSK MISSILE AND SPACE COMPLEX (PKMTR)

Note: This is SATELLITE DEBRIS
aabbcc
Your satellite tracking list
Your tracking list is empty




NASA's NSSDC Master Catalog

Two Line Element Set (TLE):
1 26601U 87020DT  19111.96696628 -.00000022 +00000-0 -31671-4 0  9995
2 26601 073.6012 309.8713 0028097 026.9141 125.3878 12.41256465955825
Source of the keplerian elements: AFSPC